Probability
13 13 13 13 6 10 6 6 6 6 6 10 10 13 6 6 6 6 13 39 35 45 42 45 45 48 55 55 52 52 42 35 35 35 32 32 29 26 26 26 23 16 13
16 16 10 10 6 6 6 10 10 6 6 6 3 3 0 0 3 3 10 19 39 42 39 42 45 48 45 48 48 45 42 45 39 32 26 26 26 19 19 23 19 16 16
13 13 13 10 13 16 13 13 10 6 6 6 3 3 3 3 0 3 3 13 16 32 42 42 48 52 48 42 42 35 39 45 45 42 42 32 39 29 26 19 16 13 16
13 13 13 16 16 13 13 13 13 10 6 3 3 3 3 3 3 0 3 6 10 10 16 39 39 39 48 42 39 35 35 35 42 39 39 39 35 35 29 26 16 13 13
19 10 13 16 16 13 13 13 10 6 3 0 0 0 0 0 0 3 0 0 0 3 6 16 26 32 32 39 39 42 39 29 32 39 32 39 35 35 29 26 26 16 10
23 13 16 16 16 10 16 16 13 16 6 6 3 3 0 0 0 0 3 3 0 0 3 3 3 16 29 26 26 29 29 32 29 26 32 35 32 26 23 26 26 10 13
29 16 16 16 13 10 16 16 16 13 10 6 3 0 0 0 0 0 0 0 0 0 3 0 0 6 10 23 23 23 23 23 19 23 19 23 26 16 13 16 16 13 10
23 19 16 19 16 13 13 10 16 10 10 10 0 0 0 0 0 0 3 0 0 0 3 6 3 0 3 6 10 19 19 19 19 23 23 19 13 10 6 10 16 13 6
26 19 16 16 13 13 10 6 10 13 13 10 6 3 0 0 0 0 0 0 0 0 0 0 3 6 6 3 3 6 16 16 26 16 16 13 10 10 6 6 6 6 16
26 23 23 13 10 10 10 10 10 6 6 6 6 3 3 3 3 0 0 0 0 0 0 3 6 6 3 0 3 3 6 6 16 16 19 23 16 13 10 10 10 6 13
29 26 23 19 13 6 10 10 10 10 6 6 3 10 6 3 0 0 0 0 0 0 0 3 3 6 3 3 0 3 3 3 3 6 16 13 19 19 13 16 10 10 10
23 26 26 19 13 10 6 6 10 10 10 6 3 3 3 3 3 0 0 0 0 0 0 3 3 3 3 3 3 3 6 3 3 0 3 3 13 16 13 13 10 6 6
26 19 19 26 16 13 13 6 6 10 10 6 6 3 3 6 3 3 0 0 0 0 0 3 3 3 0 0 0 0 0 0 0 0 0 0 3 3 3 6 10 10 10
23 13 16 16 19 23 16 16 10 10 6 6 10 10 6 6 3 3 3 0 0 0 0 3 3 3 0 0 0 0 0 0 0 0 0 0 0 0 0 3 3 3 3
23 16 16 16 16 23 19 16 16 13 10 6 6 3 3 6 3 0 0 0 0 0 0 0 3 3 0 0 0 0 0 0 0 0 0 0 0 0 0 0 0 0 0
13 13 13 13 10 13 19 19 13 13 13 10 3 3 6 6 3 0 0 0 0 0 0 0 0 3 3 0 0 0 0 0 0 0 0 0 0 0 0 0 0 0 0
10 13 13 10 10 10 16 16 16 13 16 13 13 10 3 6 0 0 3 0 0 0 0 0 0 3 3 0 0 0 0 0 0 0 0 0 0 0 0 0 0 0 0
10 13 10 16 16 10 13 16 16 16 16 16 13 6 3 6 0 0 3 0 0 0 0 0 0 0 3 3 0 0 0 0 0 0 0 0 0 0 0 0 0 0 0
10 10 13 13 16 13 13 13 16 13 13 13 10 10 6 3 0 0 0 0 0 0 0 0 0 0 3 3 0 0 0 0 0 0 0 0 0 0 0 0 0 0 0
10 10 10 10 13 13 19 13 13 10 10 10 10 6 6 6 3 3 3 3 0 0 0 0 3 0 3 3 3 0 0 0 0 0 0 0 0 0 0 0 0 0 0
10 10 10 10 10 16 16 16 16 16 10 10 13 10 6 6 3 0 0 0 3 3 0 0 0 0 0 3 3 3 0 0 0 0 0 0 0 0 0 0 0 0 0
6 10 10 10 13 16 16 13 13 16 16 16 13 6 6 6 3 6 0 3 3 3 3 3 0 0 0 3 3 3 0 0 0 0 0 0 0 0 0 0 0 0 0
6 10 10 13 13 10 6 3 3 13 13 16 13 10 10 13 6 6 3 0 0 3 3 3 3 3 3 3 3 3 3 0 0 0 0 0 0 0 0 0 0 0 0
6 6 13 13 10 10 3 0 0 6 13 13 6 6 6 6 10 6 6 3 3 3 3 0 3 3 3 3 3 3 3 0 0 0 0 0 0 0 0 0 0 0 0
10 10 10 13 10 10 3 0 0 3 10 10 10 10 3 3 3 3 6 6 3 0 3 3 0 0 3 3 3 3 0 0 0 0 0 0 0 0 0 0 0 0 0
13 10 10 10 10 6 6 0 0 3 6 6 10 3 0 0 0 0 0 3 3 3 0 0 0 0 0 0 0 3 0 0 0 0 0 0 0 0 0 0 0 0 0
Height
5884 5883 5883 5882 5881 5880 5880 5879 5878 5878 5877 5876 5875 5875 5874 5874 5874 5873 5873 5873 5873 5872 5872 5872 5872 5872 5871 5871 5871 5871 5871 5871 5871 5871 5871 5871 5871 5870 5870 5870 5870 5869 5869
5884 5883 5882 5881 5880 5880 5879 5878 5877 5876 5876 5875 5874 5873 5873 5872 5871 5871 5871 5871 5870 5870 5870 5869 5869 5869 5869 5868 5868 5868 5868 5868 5868 5868 5868 5868 5868 5867 5867 5867 5867 5867 5866
5882 5882 5881 5880 5879 5878 5877 5877 5876 5875 5874 5873 5872 5871 5871 5870 5870 5869 5869 5868 5868 5867 5867 5866 5866 5866 5866 5865 5865 5865 5865 5865 5865 5865 5865 5865 5865 5864 5864 5864 5864 5863 5863
5881 5880 5879 5878 5877 5876 5875 5875 5874 5873 5872 5871 5870 5870 5869 5868 5868 5867 5866 5866 5865 5865 5865 5864 5863 5863 5863 5862 5862 5862 5862 5862 5862 5861 5861 5861 5861 5861 5861 5860 5860 5860 5860
5879 5878 5877 5876 5875 5875 5874 5873 5872 5872 5871 5870 5869 5868 5867 5866 5865 5865 5864 5863 5863 5862 5862 5861 5860 5860 5860 5859 5859 5858 5858 5858 5858 5858 5858 5858 5857 5857 5857 5857 5857 5857 5857
5877 5876 5875 5874 5874 5873 5872 5871 5871 5870 5869 5868 5867 5866 5865 5864 5863 5863 5862 5861 5860 5859 5858 5858 5857 5857 5856 5856 5855 5855 5855 5854 5854 5854 5854 5854 5854 5853 5853 5853 5853 5853 5853
5875 5874 5873 5872 5871 5871 5870 5869 5869 5868 5867 5866 5865 5864 5862 5861 5861 5860 5859 5858 5857 5856 5856 5855 5854 5853 5853 5852 5852 5851 5851 5850 5850 5850 5850 5850 5849 5849 5849 5849 5849 5849 5849
5872 5870 5870 5869 5869 5868 5867 5867 5866 5865 5864 5863 5863 5862 5860 5860 5858 5857 5857 5856 5854 5853 5853 5851 5851 5850 5849 5848 5847 5847 5846 5846 5845 5845 5845 5845 5845 5845 5845 5844 5845 5845 5845
5867 5867 5867 5866 5866 5865 5865 5864 5863 5863 5862 5861 5860 5860 5858 5857 5856 5855 5854 5853 5852 5851 5849 5848 5847 5846 5845 5844 5843 5842 5841 5841 5840 5840 5840 5840 5840 5840 5840 5840 5840 5840 5840
5865 5864 5864 5863 5863 5862 5862 5861 5860 5860 5859 5858 5857 5857 5856 5854 5853 5852 5851 5850 5848 5847 5846 5845 5844 5842 5841 5840 5839 5837 5836 5836 5836 5836 5836 5835 5835 5835 5835 5835 5835 5836 5836
5861 5860 5860 5859 5859 5859 5858 5857 5857 5856 5856 5855 5854 5853 5852 5851 5850 5849 5848 5846 5845 5844 5842 5841 5840 5839 5838 5836 5835 5833 5832 5832 5831 5831 5831 5830 5830 5830 5830 5830 5830 5831 5831
5856 5856 5855 5855 5855 5854 5854 5853 5853 5852 5852 5851 5850 5849 5848 5847 5846 5846 5844 5843 5842 5840 5839 5838 5837 5835 5834 5833 5831 5830 5829 5828 5827 5826 5826 5825 5825 5825 5825 5825 5825 5826 5826
5851 5851 5850 5850 5849 5849 5849 5849 5849 5848 5847 5847 5846 5845 5844 5844 5843 5842 5841 5840 5838 5837 5835 5834 5833 5832 5831 5829 5828 5827 5825 5824 5823 5822 5821 5820 5820 5820 5820 5820 5820 5820 5821
5846 5845 5845 5844 5844 5844 5843 5843 5843 5843 5843 5842 5841 5841 5840 5839 5838 5837 5836 5836 5834 5833 5832 5830 5829 5828 5827 5825 5824 5823 5821 5820 5819 5818 5817 5816 5815 5815 5815 5815 5815 5815 5815
5840 5839 5839 5839 5838 5838 5838 5838 5837 5837 5837 5837 5836 5836 5835 5834 5834 5833 5832 5831 5830 5829 5828 5826 5825 5824 5822 5821 5820 5819 5817 5816 5815 5813 5812 5811 5811 5810 5810 5809 5810 5809 5810
5833 5833 5832 5832 5832 5832 5832 5832 5832 5831 5831 5831 5830 5830 5829 5829 5828 5828 5827 5826 5825 5824 5823 5822 5821 5819 5818 5817 5816 5814 5813 5812 5810 5809 5808 5806 5806 5805 5804 5804 5804 5804 5804
5826 5826 5826 5826 5825 5825 5825 5825 5825 5825 5825 5825 5824 5824 5824 5823 5822 5822 5821 5821 5820 5819 5818 5817 5816 5815 5813 5812 5811 5810 5808 5807 5806 5804 5803 5802 5801 5800 5799 5799 5799 5799 5799
5819 5819 5818 5819 5819 5818 5818 5818 5818 5818 5818 5818 5819 5818 5818 5818 5817 5816 5816 5815 5814 5813 5813 5812 5811 5809 5808 5807 5806 5805 5803 5802 5801 5800 5799 5797 5796 5795 5794 5794 5794 5793 5793
5811 5811 5811 5811 5811 5811 5811 5811 5811 5811 5811 5812 5812 5812 5812 5812 5811 5811 5810 5809 5808 5808 5807 5806 5805 5804 5803 5802 5801 5800 5798 5797 5795 5794 5793 5792 5791 5790 5789 5788 5788 5787 5787
5802 5802 5802 5803 5804 5804 5804 5804 5804 5804 5804 5805 5805 5806 5806 5806 5806 5805 5804 5804 5803 5802 5801 5800 5800 5799 5798 5796 5795 5794 5793 5791 5790 5788 5787 5786 5785 5784 5783 5783 5782 5782 5781
5793 5794 5794 5795 5796 5796 5797 5797 5797 5797 5798 5798 5798 5799 5799 5799 5799 5799 5798 5798 5797 5796 5795 5794 5793 5792 5791 5790 5789 5787 5786 5785 5783 5782 5781 5780 5779 5778 5777 5776 5776 5775 5775
5784 5785 5786 5787 5788 5788 5789 5790 5790 5790 5791 5791 5792 5792 5793 5793 5793 5792 5792 5791 5791 5790 5789 5788 5787 5786 5785 5784 5782 5781 5779 5778 5777 5776 5774 5773 5773 5772 5771 5770 5769 5769 5768
5776 5777 5778 5778 5779 5781 5782 5782 5782 5783 5784 5784 5785 5785 5786 5786 5786 5785 5785 5785 5784 5783 5782 5781 5780 5779 5778 5777 5775 5774 5772 5771 5770 5768 5767 5767 5766 5765 5764 5763 5763 5762 5762
5768 5769 5770 5771 5772 5773 5774 5775 5775 5776 5777 5778 5778 5779 5779 5779 5779 5779 5778 5778 5777 5776 5775 5774 5773 5772 5771 5769 5768 5767 5765 5764 5763 5761 5760 5760 5759 5759 5758 5757 5756 5755 5755
5759 5760 5761 5763 5764 5765 5767 5768 5769 5769 5769 5770 5771 5772 5772 5772 5772 5772 5771 5771 5770 5769 5768 5766 5765 5764 5763 5762 5761 5760 5759 5757 5756 5755 5754 5753 5753 5752 5752 5751 5750 5749 5748
5750 5752 5753 5755 5756 5757 5759 5759 5760 5762 5762 5763 5764 5764 5765 5765 5765 5765 5764 5764 5763 5762 5761 5759 5758 5757 5756 5755 5754 5753 5752 5751 5750 5749 5748 5747 5746 5746 5745 5744 5743 5742 5741
Wind_Speed
5 4 4 4 4 4 5 5 5 5 6 6 6 6 6 6 6 7 7 7 8 8 9 9 9 9 9 10 11 11 11 11 11 11 10 10 10 11 11 11 11 10 9
5 5 5 5 5 5 6 6 6 6 6 7 7 6 6 6 7 7 7 8 8 9 9 9 9 10 10 10 11 12 12 12 12 12 11 11 11 11 12 12 12 11 11
5 6 6 6 6 7 7 7 7 7 7 7 7 8 8 8 8 8 8 8 9 9 9 10 9 10 10 10 11 12 12 12 12 12 12 12 12 12 13 12 12 12 12
6 7 7 7 7 7 8 8 8 7 8 8 8 9 9 8 8 8 8 9 10 10 10 10 10 11 10 11 11 12 12 12 13 13 13 13 13 12 12 13 13 13 13
8 8 8 8 8 8 8 8 8 8 8 9 9 9 9 10 9 9 9 9 10 11 11 11 11 11 11 12 12 12 13 13 13 13 13 13 13 13 14 13 14 14 14
9 8 8 9 9 9 9 9 9 9 9 10 9 9 9 10 9 9 9 9 10 11 11 11 12 12 12 13 13 14 14 14 14 14 14 14 14 14 14 14 14 14 14
10 10 9 9 9 10 9 9 9 9 9 9 9 9 10 10 10 10 9 10 11 12 12 12 12 13 13 14 14 15 16 16 16 16 16 15 15 16 15 14 14 14 14
12 11 10 11 11 10 10 9 9 9 9 9 9 9 10 10 10 10 10 10 11 11 11 12 12 13 13 14 14 16 16 17 17 17 16 16 16 15 15 15 15 15 15
14 13 13 12 12 11 11 11 10 10 10 10 10 10 10 11 11 10 10 10 11 12 11 11 12 13 14 14 14 15 16 16 16 16 16 16 16 16 15 16 16 16 16
15 15 15 14 13 13 13 12 12 11 11 12 12 12 11 11 11 11 11 11 12 12 12 12 13 13 14 14 14 14 15 15 16 16 16 16 17 17 17 17 17 17 17
16 16 16 15 14 14 14 14 14 13 13 13 13 13 12 12 12 12 11 12 12 12 13 13 13 13 13 14 14 14 13 14 15 16 16 17 17 17 17 17 17 17 18
18 18 17 17 16 16 15 15 15 15 15 15 14 14 13 13 13 13 12 12 12 12 13 12 12 12 12 13 13 13 13 14 14 15 16 17 18 18 17 17 17 18 18
19 20 19 18 18 17 17 16 16 16 16 16 16 15 15 14 14 14 13 13 13 13 12 12 12 12 13 13 13 14 15 15 14 14 15 16 17 17 17 18 18 18 18
21 21 21 20 19 19 19 19 18 17 17 17 17 16 16 15 15 14 14 14 14 14 13 13 13 14 14 14 14 15 15 15 15 15 15 16 16 16 17 18 18 19 19
22 23 23 22 21 20 21 20 19 19 18 18 17 17 17 16 16 15 15 15 15 15 14 15 15 15 15 14 15 15 15 15 15 15 15 16 16 17 17 18 19 19 19
24 24 23 23 22 22 21 21 21 20 20 19 19 18 18 17 17 17 17 17 16 16 16 16 16 16 16 16 16 16 15 15 16 16 16 17 17 18 19 19 20 19 19
25 25 24 24 23 22 22 22 21 21 20 20 19 19 18 18 18 18 17 18 18 18 17 17 17 17 17 17 16 16 16 16 17 17 17 17 17 18 18 19 20 20 20
26 25 25 25 25 24 23 22 21 21 21 20 19 19 19 18 18 18 18 18 19 19 19 18 18 18 18 18 18 18 17 18 18 18 18 18 17 18 18 19 20 20 20
26 26 25 25 24 23 23 22 22 21 21 21 21 20 19 18 18 18 18 18 18 18 19 19 19 18 18 18 18 18 18 19 19 19 19 18 18 18 18 19 19 19 19
27 26 25 25 24 24 23 22 22 21 22 21 21 20 20 19 19 18 18 18 18 19 19 19 20 20 19 19 19 19 19 20 20 20 19 19 18 19 19 19 19 19 19
27 26 25 25 25 24 23 22 23 22 22 21 20 20 20 20 19 19 19 19 20 20 20 20 21 21 21 21 21 21 21 21 21 21 21 20 20 20 20 20 20 19 20
27 26 24 25 25 24 24 23 23 23 22 21 21 20 20 20 20 19 20 20 21 21 21 21 22 22 22 22 22 22 22 21 21 22 22 21 21 20 21 21 21 21 21
27 26 25 24 24 25 24 22 21 21 21 21 21 21 21 20 20 19 19 20 21 21 22 22 22 22 22 22 23 23 22 22 22 22 22 22 21 21 21 21 21 20 20
28 26 26 25 25 24 24 23 22 22 21 21 21 21 22 21 20 20 20 20 20 21 21 22 22 22 22 22 22 22 23 23 22 22 21 20 20 21 21 21 21 21 21
27 27 27 26 26 25 25 24 23 22 21 20 20 20 21 21 20 20 20 20 20 21 21 22 22 22 22 22 22 23 22 22 22 22 21 20 19 20 20 20 20 21 21
28 27 26 25 25 25 25 24 23 22 22 21 21 21 21 21 20 20 21 21 21 21 22 22 22 22 22 23 23 23 23 22 22 21 21 21 20 20 20 20 20 21 21
Wind_Direction
341 331 327 321 320 315 316 312 314 306 304 301 293 284 283 286 285 285 281 278 275 272 268 268 269 270 271 269 266 262 259 260 262 267 269 268 269 269 271 272 274 273 271
321 319 314 314 310 308 310 306 303 306 307 307 296 289 294 292 288 283 280 277 276 276 270 266 268 272 271 269 268 263 260 260 262 266 268 266 266 269 272 274 272 272 270
313 311 308 311 310 306 302 301 300 300 302 302 296 295 297 293 286 283 279 277 275 275 275 268 268 273 273 270 267 265 263 263 263 265 266 265 265 267 270 272 272 274 271
309 306 302 306 310 307 302 300 299 298 303 302 295 292 294 293 289 283 282 282 278 275 276 272 271 273 272 271 270 266 264 266 266 266 266 265 264 266 268 269 269 270 269
303 304 303 302 301 299 299 295 294 293 297 298 294 288 287 288 288 285 285 283 279 277 278 278 272 272 274 273 272 267 265 266 268 269 270 267 267 268 268 268 268 267 266
300 298 299 299 297 295 293 293 295 298 295 295 295 290 289 288 287 288 287 283 280 278 281 281 274 274 274 276 274 270 268 268 268 269 270 270 270 270 269 267 268 267 263
298 292 293 293 294 293 291 292 292 297 296 295 295 292 292 291 290 289 287 284 281 280 281 280 277 275 274 275 274 272 270 269 268 267 267 269 269 267 267 269 268 267 266
294 291 293 290 292 289 287 288 291 294 298 298 298 292 290 292 292 291 289 288 286 284 283 281 278 277 275 275 275 272 268 269 267 265 266 267 266 266 268 267 266 266 267
292 290 292 293 293 288 283 283 286 290 292 294 295 296 294 289 289 290 291 290 287 287 286 283 283 282 282 281 278 274 270 269 268 266 266 267 266 267 270 267 267 264 265
290 288 289 289 289 286 282 282 282 285 286 289 291 291 291 292 291 291 291 290 289 290 290 285 283 283 284 285 282 278 272 269 268 268 267 267 267 266 268 267 266 263 263
285 285 285 283 283 281 280 281 280 281 283 286 289 289 288 289 290 289 289 289 288 290 289 286 282 282 285 284 283 280 277 274 272 270 270 270 269 266 267 265 264 264 264
280 279 279 280 280 278 279 278 276 277 279 284 285 285 285 286 286 286 286 286 284 286 286 285 283 283 285 284 286 286 286 283 281 276 274 272 271 267 266 266 265 264 264
279 276 276 276 278 279 278 275 273 274 277 280 280 281 282 283 282 281 282 282 281 282 285 285 283 285 287 285 285 286 287 286 284 281 276 274 272 269 267 265 265 265 265
276 276 274 275 276 276 277 276 275 275 276 278 278 277 278 281 280 279 279 280 282 284 284 281 281 281 283 283 283 285 286 286 285 284 281 279 276 273 269 266 265 266 267
273 274 276 273 274 275 274 275 275 275 276 276 276 274 274 276 277 277 278 279 281 282 282 278 278 279 283 284 285 287 287 288 286 287 286 282 280 276 272 269 268 268 268
273 274 274 271 272 274 274 273 273 273 275 274 274 273 275 276 276 276 276 277 280 282 281 276 277 280 281 281 284 285 285 286 286 285 285 283 280 276 274 273 272 272 272
272 272 271 269 268 270 273 272 272 272 271 270 272 273 275 274 273 275 276 277 279 279 279 276 276 280 280 281 282 282 283 284 286 286 286 285 282 279 277 275 275 275 273
270 269 268 267 268 267 269 269 269 267 267 267 268 271 275 276 274 275 276 277 278 279 277 275 275 277 279 280 281 283 283 283 285 285 285 284 282 283 281 279 278 276 274
270 270 269 266 267 267 265 265 265 263 263 264 266 267 270 273 274 275 276 278 279 278 277 277 277 277 279 279 279 281 282 283 284 283 282 281 280 281 280 278 278 277 275
269 269 267 266 265 264 264 263 262 262 262 264 265 264 265 269 270 273 275 276 277 277 278 280 281 278 277 278 280 280 281 283 283 281 281 281 280 281 280 278 278 277 275
267 268 266 264 262 261 261 264 261 261 262 264 265 265 266 268 269 270 272 275 277 278 278 279 281 280 279 280 280 280 281 282 282 281 279 279 280 280 280 278 278 276 274
266 266 265 262 261 260 260 264 261 259 260 264 265 264 266 267 269 271 274 277 278 278 279 280 280 280 279 280 281 282 284 285 284 281 279 278 279 280 280 277 277 277 275
265 263 264 264 258 257 258 260 258 260 262 264 264 262 265 268 270 272 277 279 279 279 280 281 281 281 281 281 282 282 283 283 284 283 280 278 277 280 281 279 279 278 276
262 261 261 260 259 258 257 257 257 261 262 264 263 261 263 266 269 273 276 279 282 282 281 281 282 283 281 281 283 284 283 283 282 281 280 279 278 278 280 280 278 276 274
259 260 259 258 259 260 258 256 257 259 262 263 263 262 264 265 268 271 273 278 282 284 284 282 282 282 281 281 282 283 283 282 281 279 278 277 276 277 278 279 279 277 276
259 258 257 256 257 256 256 257 255 257 259 260 259 260 262 264 267 271 274 277 280 283 284 284 282 281 279 280 282 283 284 283 280 278 277 276 275 275 276 277 279 280 278